EW4479 Weather Reports


time (UTC)temp
F
wind
direction
speed
knots
gust
knots
rain 1hr
in
rain 24hr
in
rain mn
in
humidity
%
barometer
mb
20210916112315 67 294 0.0 4.3 0.00 0.46 0.06 88 1015.7
20210916111814 66 273 0.9 4.3 0.00 0.46 0.06 88 1015.7
20210916111315 67 290 0.9 3.5 0.00 0.46 0.06 88 1015.7
20210916110815 68 333 1.7 5.2 0.00 0.46 0.06 85 1015.6
20210916110315 69 282 1.7 5.2 0.00 0.46 0.06 82 1015.6
20210916105815 70 321 0.9 4.3 0.00 0.46 0.06 82 1015.7
20210916105314 70 216 0.9 6.1 0.00 0.46 0.06 81 1015.7
20210916104810 70 315 0.9 5.2 0.00 0.46 0.06 83 1015.7
20210916104314 69 340 1.7 6.1 0.00 0.46 0.06 82 1015.7
20210916103810 69 267 0.9 6.1 0.00 0.46 0.06 81 1015.8
20210916103310 69 186 0.9 4.3 0.00 0.46 0.06 85 1015.7
20210916102811 69 329 1.7 7.0 0.00 0.46 0.06 83 1015.7
20210916102311 69 230 0.9 7.0 0.00 0.46 0.06 81 1015.9
20210916101811 69 253 0.9 3.5 0.00 0.46 0.06 86 1015.8
20210916101311 67 228 0.9 3.5 0.00 0.46 0.06 87 1016.0
20210916100813 67 210 0.9 4.3 0.00 0.46 0.06 87 1015.9
20210916100311 68 287 1.7 5.2 0.00 0.46 0.06 89 1015.9
20210916095810 68 207 1.7 5.2 0.00 0.46 0.06 87 1016.0
20210916095311 69 262 1.7 4.3 0.00 0.46 0.06 89 1015.9
20210916094811 68 250 1.7 4.3 0.00 0.46 0.06 88 1016.0
20210916094311 67 188 1.7 4.3 0.00 0.46 0.06 89 1016.0
20210916093807 67 229 1.7 4.3 0.00 0.46 0.06 90 1016.0
20210916093309 67 211 1.7 5.2 0.00 0.46 0.06 92 1016.0
20210916092806 66 215 0.9 5.2 0.00 0.46 0.06 91 1016.1
20210916092308 66 199 0.9 3.5 0.00 0.46 0.06 91 1016.0
20210916091807 66 202 1.7 6.1 0.00 0.46 0.06 92 1016.1
20210916091307 66 209 1.7 6.1 0.00 0.46 0.06 92 1016.1
20210916090808 66 237 1.7 5.2 0.00 0.46 0.06 91 1016.1
20210916090307 66 233 1.7 5.2 0.00 0.46 0.06 91 1016.2
20210916085804 66 252 1.7 6.1 0.00 0.46 0.06 90 1016.2
20210916085304 67 257 0.9 6.1 0.01 0.46 0.06 91 1016.2
20210916084802 67 217 0.9 3.5 0.01 0.46 0.06 91 1016.2
20210916084302 66 202 0.9 3.5 0.01 0.46 0.06 95 1016.2
20210916083802 65 265 1.7 4.3 0.01 0.46 0.06 95 1016.3
20210916083302 65 218 1.7 4.3 0.01 0.46 0.06 95 1016.2
20210916082801 65 224 0.9 4.3 0.01 0.46 0.06 95 1016.2
20210916082305 65 218 0.9 4.3 0.01 0.46 0.06 94 1016.1
20210916081803 65 229 0.9 3.5 0.01 0.46 0.06 96 1016.2
20210916081302 64 229 0.9 3.5 0.01 0.46 0.06 95 1016.2
20210916080801 64 263 0.9 3.5 0.01 0.46 0.06 95 1016.1
20210916080302 64 234 0.0 2.6 0.01 0.46 0.06 96 1016.1
20210916075801 63 233 0.0 2.6 0.01 0.46 0.06 96 1016.1
20210916075305 63 246 0.9 3.5 0.00 0.46 0.06 96 1016.1
20210916074802 63 203 0.9 3.5 0.00 0.46 0.06 96 1016.1
20210916074302 63 220 0.0 3.5 0.00 0.46 0.06 96 1016.1
20210916073803 63 217 0.0 2.6 0.00 0.46 0.06 96 1016.0
20210916073300 62 203 0.9 3.5 0.00 0.46 0.06 97 1016.1
20210916072801 62 215 0.9 3.5 0.01 0.46 0.06 97 1016.0
20210916072301 62 220 0.9 3.5 0.01 0.46 0.06 97 1016.0
20210916071801 62 221 0.9 3.5 0.02 0.46 0.06 97 1016.1
20210916071302 62 248 0.0 2.6 0.02 0.46 0.06 98 1016.0
20210916070800 61 240 0.9 2.6 0.03 0.46 0.06 98 1016.1
20210916070300 61 240 0.9 2.6 0.03 0.46 0.06 98 1016.0
20210916065801 61 240 1.7 2.6 0.04 0.46 0.06 98 1016.1
20210916065301 61 227 1.7 3.5 0.05 0.46 0.06 98 1016.0
20210916064801 61 219 0.9 3.5 0.06 0.46 0.06 98 1016.0
20210916064301 61 240 0.0 3.5 0.06 0.46 0.06 99 1015.9
20210916063800 60 240 0.0 2.6 0.06 0.46 0.06 99 1016.0
20210916063301 60 240 0.0 2.6 0.06 0.46 0.06 99 1015.9
20210916062801 60 240 0.0 2.6 0.05 0.46 0.05 99 1016.0
20210916062301 60 254 0.0 1.7 0.05 0.46 0.05 99 1016.0
20210916061801 60 254 0.0 1.7 0.04 0.45 0.04 99 1015.9
20210916061301 60 254 0.0 0.0 0.03 0.44 0.03 99 1016.0
20210916060803 60 254 0.0 0.0 0.02 0.43 0.02 99 1016.0
20210916060300 60 254 0.0 0.0 0.02 0.43 0.02 99 1016.0
20210916055801 60 254 0.0 0.0 0.02 0.43 0.02 99 1016.1
20210916055301 59 254 0.0 0.9 0.01 0.42 0.01 99 1016.0
20210916054802 59 254 0.0 0.9 0.00 0.41 0.00 99 1015.9
20210916054301 59 254 0.0 0.9 0.00 0.41 0.00 99 1015.9
20210916053801 59 254 0.0 0.9 0.00 0.41 0.00 99 1015.9
20210916053300 59 254 0.0 0.9 0.00 0.41 0.00 99 1015.9
20210916052804 59 254 0.0 0.9 0.00 0.41 0.00 99 1015.8
20210916052305 59 254 0.0 0.9 0.00 0.41 0.00 99 1015.8
20210916051804 59 254 0.0 0.9 0.00 0.41 0.00 99 1015.7
20210916051303 59 254 0.0 0.0 0.00 0.41 0.00 99 1015.6
20210916050803 59 254 0.0 0.0 0.00 0.41 0.00 99 1015.5
20210916050305 59 254 0.0 0.0 0.00 0.41 0.00 99 1015.5
20210916045803 59 254 0.0 0.0 0.00 0.41 0.00 99 1015.4
20210916045305 59 254 0.0 0.0 0.00 0.41 0.00 99 1015.4
20210916044803 59 254 0.0 0.0 0.00 0.41 0.00 99 1015.5
20210916044302 59 254 0.0 0.0 0.00 0.41 0.00 99 1015.5
20210916043802 59 254 0.0 0.0 0.00 0.41 0.00 99 1015.3
20210916043304 59 254 0.0 0.0 0.00 0.41 0.00 99 1015.3
20210916042803 59 254 0.0 0.0 0.00 0.41 0.00 99 1015.3
20210916042305 59 254 0.0 0.0 0.00 0.41 0.00 99 1015.4
20210916041803 59 254 0.0 0.0 0.00 0.41 0.00 99 1015.5
20210916041302 59 254 0.0 0.0 0.00 0.41 0.00 99 1015.5
20210916040802 59 254 0.0 0.0 0.00 0.41 0.00 99 1015.5
20210916040303 59 254 0.0 0.0 0.00 0.41 0.00 99 1015.5
20210916035803 59 254 0.0 0.9 0.00 0.41 0.00 99 1015.5
20210916035305 59 254 0.0 0.9 0.00 0.41 0.00 99 1015.6
20210916034802 59 254 0.0 0.9 0.00 0.41 0.00 99 1015.6
20210916034301 59 254 0.0 0.9 0.00 0.41 0.00 99 1015.6
20210916033800 59 254 0.0 0.9 0.00 0.41 0.00 99 1015.6
20210916033302 59 254 0.0 0.9 0.00 0.41 0.00 99 1015.6
20210916032801 59 254 0.0 0.0 0.00 0.41 0.00 99 1015.7
20210916032301 59 254 0.0 0.9 0.00 0.41 0.00 99 1015.7
20210916031758 59 254 0.0 0.9 0.00 0.41 0.00 99 1015.8
20210916031259 59 254 0.0 0.9 0.00 0.41 0.00 99 1015.7
20210916030758 59 254 0.0 0.9 0.00 0.41 0.00 99 1015.6
20210916030301 58 254 0.0 0.9 0.00 0.41 0.00 99 1015.6
20210916025758 58 254 0.0 0.9 0.00 0.41 0.00 98 1015.5
20210916025259 58 254 0.0 0.9 0.00 0.41 0.00 98 1015.5
20210916024800 58 254 0.0 0.0 0.00 0.41 0.00 98 1015.5
20210916024258 58 254 0.0 0.0 0.00 0.41 0.00 98 1015.6
20210916023759 58 254 0.0 0.0 0.00 0.41 0.00 98 1015.6
20210916023301 58 254 0.0 0.0 0.00 0.41 0.00 98 1015.7
20210916022759 59 254 0.0 0.0 0.00 0.41 0.00 98 1015.6
20210916022305 59 254 0.0 0.0 0.00 0.41 0.00 98 1015.6
20210916021800 59 254 0.0 0.0 0.00 0.41 0.00 98 1015.7
20210916021256 59 254 0.0 0.0 0.00 0.41 0.00 98 1015.7
20210916020756 59 254 0.0 0.0 0.00 0.41 0.00 98 1015.6
20210916020254 60 254 0.0 0.9 0.00 0.41 0.00 98 1015.7
20210916015755 60 254 0.0 0.9 0.00 0.41 0.00 98 1015.9
20210916015255 60 254 0.0 0.9 0.00 0.41 0.00 97 1015.9
20210916014757 60 254 0.0 0.9 0.00 0.41 0.00 97 1015.9
20210916014254 60 254 0.0 0.9 0.00 0.41 0.00 97 1015.9
20210916013751 60 254 0.0 0.9 0.00 0.41 0.00 97 1015.9
20210916013246 61 254 0.0 0.9 0.00 0.41 0.00 97 1016.0
20210916012746 61 254 0.0 0.9 0.00 0.41 0.00 97 1016.0
20210916012247 61 254 0.0 1.7 0.00 0.41 0.00 96 1016.1
20210916011747 61 254 0.0 1.7 0.00 0.41 0.00 96 1016.0
20210916011230 61 254 0.0 1.7 0.00 0.41 0.00 96 1016.0
20210916010731 61 254 0.0 1.7 0.00 0.41 0.00 96 1016.0
20210916010229 61 254 0.0 1.7 0.00 0.41 0.00 96 1015.9
20210916005729 61 254 0.0 1.7 0.00 0.41 0.00 96 1015.9
20210916005229 61 254 0.0 0.9 0.00 0.41 0.00 96 1015.9
20210916004729 61 254 0.0 0.9 0.00 0.41 0.00 96 1015.9
20210916004231 61 254 0.0 1.7 0.00 0.41 0.00 96 1015.9
20210916003729 61 254 0.0 1.7 0.00 0.41 0.00 96 1015.8
20210916003229 62 255 0.0 2.6 0.00 0.41 0.00 95 1015.9
20210916002729 62 254 0.0 2.6 0.00 0.41 0.00 95 1016.0
20210916002229 62 257 0.0 2.6 0.00 0.41 0.00 95 1016.1
20210916001728 62 246 0.0 1.7 0.00 0.41 0.00 95 1016.1
20210916001228 62 246 0.0 2.6 0.00 0.41 0.00 95 1016.1
20210916000731 62 209 0.9 3.5 0.00 0.41 0.00 95 1016.1
20210915235729 62 230 0.9 4.3 0.00 0.41 0.00 95 1016.1
20210915235229 62 251 0.9 4.3 0.00 0.41 0.00 95 1016.1
20210915234729 62 232 0.9 4.3 0.00 0.41 0.00 95 1016.0
20210915234228 62 217 1.7 6.1 0.00 0.41 0.00 95 1016.0
20210915233729 62 213 2.6 6.1 0.00 0.41 0.00 95 1016.0
20210915233228 62 221 1.7 6.1 0.00 0.41 0.00 95 1016.0
20210915232729 62 254 1.7 4.3 0.00 0.41 0.00 95 1015.9
20210915232228 62 223 0.9 4.3 0.00 0.41 0.00 95 1016.0
20210915231729 62 223 0.9 5.2 0.00 0.41 0.00 95 1015.9
20210915231228 62 215 1.7 5.2 0.00 0.41 0.00 95 1015.8
20210915230733 62 217 2.6 5.2 0.00 0.41 0.00 95 1015.8
20210915230230 62 226 1.7 5.2 0.00 0.41 0.00 95 1015.8
20210915225731 62 224 0.9 2.6 0.00 0.41 0.00 95 1015.7
20210915225229 62 198 0.9 5.2 0.00 0.41 0.00 95 1015.8
20210915224730 62 212 0.9 5.2 0.00 0.41 0.00 95 1015.8
20210915224230 62 232 0.9 2.6 0.00 0.41 0.00 95 1015.7
20210915223730 62 226 0.9 3.5 0.00 0.41 0.00 95 1015.7
20210915223229 62 192 0.9 3.5 0.00 0.41 0.00 95 1015.7
20210915222730 62 221 0.9 4.3 0.00 0.41 0.00 96 1015.8
20210915222229 62 227 1.7 4.3 0.00 0.41 0.00 96 1015.7
20210915221730 62 217 1.7 5.2 0.00 0.41 0.00 96 1015.7
20210915221230 62 213 2.6 5.2 0.00 0.41 0.00 96 1015.7
20210915220729 62 189 2.6 6.1 0.00 0.41 0.00 96 1015.7
20210915220230 62 201 2.6 6.1 0.00 0.41 0.00 97 1015.7
20210915215730 62 194 2.6 5.2 0.00 0.41 0.41 97 1015.7
20210915215229 63 192 1.7 4.3 0.00 0.41 0.41 97 1015.7
20210915214729 63 173 2.6 6.1 0.00 0.41 0.41 96 1015.8
20210915214229 63 184 3.5 7.0 0.00 0.41 0.41 96 1015.8
20210915213730 63 182 3.5 7.0 0.00 0.41 0.41 96 1015.7
20210915213233 63 185 2.6 5.2 0.01 0.41 0.41 96 1015.7
20210915212730 63 170 1.7 5.2 0.01 0.41 0.41 96 1015.7
20210915212230 63 166 1.7 4.3 0.02 0.41 0.41 96 1015.7
20210915211730 63 187 1.7 4.3 0.02 0.41 0.41 97 1015.8
20210915211233 63 215 1.7 4.3 0.02 0.41 0.41 97 1015.8
20210915210730 63 188 2.6 4.3 0.02 0.41 0.41 97 1015.8
20210915210234 63 194 1.7 4.3 0.02 0.41 0.41 97 1015.8
20210915205730 63 182 1.7 4.3 0.02 0.41 0.41 97 1015.9
20210915205229 63 179 0.9 3.5 0.02 0.41 0.41 97 1015.9
20210915204729 63 201 0.9 3.5 0.02 0.41 0.41 97 1016.0
20210915204229 63 187 1.7 3.5 0.02 0.41 0.41 97 1016.0
20210915203730 63 210 1.7 3.5 0.06 0.41 0.41 97 1016.0
20210915203230 63 182 0.0 3.5 0.06 0.40 0.40 97 1016.1
20210915202733 63 219 0.0 2.6 0.07 0.40 0.40 98 1016.2
20210915202231 63 219 0.0 2.6 0.06 0.39 0.39 98 1016.2
20210915201729 63 210 0.0 1.7 0.06 0.39 0.39 98 1016.1
20210915201231 63 210 0.0 0.9 0.06 0.39 0.39 98 1016.2
20210915200729 63 210 0.0 0.9 0.06 0.39 0.39 98 1016.2
20210915200230 63 210 0.0 0.9 0.06 0.39 0.39 98 1016.2
20210915195734 63 210 0.0 0.9 0.07 0.39 0.39 98 1016.2
20210915195231 63 210 0.0 0.9 0.09 0.39 0.39 98 1016.3
20210915194730 63 210 0.0 2.6 0.10 0.39 0.39 98 1016.2
20210915194229 63 210 0.0 2.6 0.09 0.39 0.39 97 1016.2
20210915193730 63 223 0.0 1.7 0.06 0.35 0.35 98 1016.2
20210915193230 63 223 0.0 1.7 0.05 0.34 0.34 97 1016.1
20210915192730 63 221 0.0 1.7 0.04 0.33 0.33 97 1016.1
20210915192232 63 221 0.0 1.7 0.04 0.33 0.33 98 1016.1
20210915191729 64 221 0.0 1.7 0.04 0.33 0.33 98 1016.1
20210915191230 64 221 0.9 3.5 0.04 0.33 0.33 98 1016.0
20210915190730 63 221 0.9 3.5 0.04 0.33 0.33 98 1016.0
20210915190230 63 182 0.0 3.5 0.05 0.33 0.33 98 1016.0
20210915185730 63 225 0.0 1.7 0.05 0.32 0.32 97 1015.9
20210915185233 63 249 0.0 1.7 0.05 0.31 0.31 97 1016.1
20210915184730 63 249 0.0 1.7 0.05 0.29 0.29 97 1015.8
20210915184230 63 249 0.0 1.7 0.06 0.29 0.29 97 1015.8
20210915183730 63 249 0.0 0.9 0.06 0.29 0.29 97 1015.7
20210915183230 63 249 0.0 1.7 0.08 0.29 0.29 97 1015.6
20210915182730 63 249 0.0 1.7 0.09 0.29 0.29 97 1015.5
20210915182229 63 249 0.0 0.9 0.10 0.29 0.29 97 1015.5
20210915181730 63 249 0.0 1.7 0.11 0.29 0.29 97 1015.5
20210915181230 63 249 0.0 1.7 0.13 0.29 0.29 97 1015.4
20210915180731 63 249 0.0 0.9 0.14 0.29 0.29 97 1015.3
20210915180230 63 249 0.0 0.9 0.16 0.28 0.28 97 1015.4
20210915175730 63 249 0.0 0.9 0.20 0.27 0.27 97 1015.4
20210915175230 63 249 0.0 0.9 0.23 0.26 0.26 96 1015.4
20210915174731 63 249 0.0 0.9 0.23 0.24 0.24 96 1015.3
20210915174230 64 249 0.0 0.9 0.23 0.24 0.24 96 1015.3
20210915173730 64 249 0.0 1.7 0.22 0.23 0.23 96 1015.3
20210915173230 64 249 0.0 1.7 0.20 0.21 0.21 96 1015.3
20210915172730 64 249 0.0 1.7 0.19 0.20 0.20 96 1015.2
20210915172230 64 249 0.0 1.7 0.18 0.19 0.19 96 1015.1
20210915171729 64 249 0.0 1.7 0.17 0.18 0.18 96 1015.0
20210915171230 65 252 0.0 2.6 0.16 0.17 0.17 94 1015.2
20210915170729 65 252 0.0 2.6 0.14 0.15 0.15 92 1015.7
20210915170229 66 239 0.0 2.6 0.12 0.13 0.13 94 1016.0
20210915165730 66 239 0.0 2.6 0.06 0.06 0.06 93 1016.0
20210915165230 67 19 0.0 1.7 0.02 0.03 0.03 92 1015.7
20210915164730 67 26 0.0 0.9 0.01 0.02 0.02 91 1015.3
20210915164230 67 26 0.0 0.0 0.00 0.01 0.01 89 1015.1
20210915163730 67 26 0.0 0.0 0.00 0.01 0.01 88 1015.0
20210915163224 67 27 0.0 0.0 0.00 0.01 0.01 88 1014.9
20210915162725 67 26 0.0 0.0 0.00 0.01 0.01 88 1014.8
20210915162224 68 27 0.0 0.9 0.00 0.01 0.01 87 1014.8
20210915161721 68 26 0.0 1.7 0.00 0.01 0.01 86 1014.8
20210915161221 68 26 0.0 1.7 0.00 0.01 0.01 85 1014.8
20210915160716 68 27 0.0 0.9 0.00 0.01 0.01 85 1014.6
20210915160217 68 26 0.0 0.9 0.00 0.01 0.01 85 1014.6
20210915155712 69 27 0.0 0.9 0.00 0.01 0.01 82 1014.5
20210915155205 69 26 0.0 0.9 0.00 0.01 0.01 81 1014.6
20210915154705 70 26 0.0 2.6 0.00 0.01 0.01 81 1014.6
20210915154204 70 26 0.0 2.6 0.00 0.01 0.01 80 1014.6
20210915153704 70 71 0.0 1.7 0.00 0.01 0.01 80 1014.6
20210915153205 71 71 0.0 1.7 0.00 0.01 0.01 79 1014.6
20210915152706 71 71 0.0 1.7 0.00 0.01 0.01 79 1014.6
20210915152205 71 72 0.0 1.7 0.00 0.01 0.01 79 1014.5
20210915151707 71 34 0.0 1.7 0.00 0.01 0.01 79 1014.4
20210915151204 70 18 0.0 1.7 0.00 0.01 0.01 80 1014.5
20210915150705 70 15 0.0 0.9 0.00 0.01 0.01 79 1014.8
20210915150205 70 15 0.0 0.9 0.00 0.01 0.01 79 1014.8
20210915145705 70 15 0.0 0.0 0.00 0.01 0.01 80 1014.8
20210915145206 70 15 0.0 0.9 0.00 0.01 0.01 81 1014.8
20210915144704 70 15 0.0 0.9 0.00 0.01 0.01 81 1014.8
20210915144205 70 15 0.0 0.9 0.00 0.01 0.01 81 1014.9
20210915143705 70 13 0.0 0.9 0.00 0.01 0.01 80 1014.8
20210915143205 70 13 0.0 3.5 0.00 0.01 0.01 80 1014.6
20210915142702 71 13 0.0 3.5 0.00 0.01 0.01 78 1014.6
20210915142203 71 329 0.0 3.5 0.00 0.01 0.01 77 1014.6
20210915141703 71 5 0.0 2.6 0.00 0.01 0.01 77 1014.6
20210915141202 72 0 0.0 2.6 0.00 0.01 0.01 76 1014.6
20210915140701 72 0 0.0 2.6 0.00 0.01 0.01 74 1014.8
20210915140201 73 34 0.0 2.6 0.00 0.01 0.01 76 1014.8
20210915135701 72 25 0.9 2.6 0.00 0.01 0.01 77 1014.6
20210915135203 72 37 0.9 3.5 0.00 0.01 0.01 75 1014.6
20210915134701 73 135 0.9 4.3 0.00 0.01 0.01 76 1014.8
20210915134201 73 9 0.0 4.3 0.00 0.01 0.01 76 1014.9
20210915133701 73 36 0.0 2.6 0.00 0.01 0.01 76 1014.9
20210915133203 73 38 0.0 2.6 0.00 0.01 0.01 79 1014.9
20210915132700 71 19 0.0 2.6 0.00 0.01 0.01 83 1014.9
20210915132204 69 19 0.0 2.6 0.00 0.01 0.01 84 1015.0
20210915131701 69 5 0.0 1.7 0.00 0.01 0.01 82 1015.0
20210915131203 69 17 0.0 1.7 0.00 0.01 0.01 83 1015.0
20210915130700 70 17 0.0 1.7 0.00 0.01 0.01 82 1015.0
20210915130202 70 329 0.0 1.7 0.00 0.01 0.01 82 1015.1
20210915125700 70 319 0.0 2.6 0.00 0.01 0.01 81 1015.4
20210915125202 70 319 0.9 2.6 0.00 0.01 0.01 81 1015.4
20210915124700 70 351 0.9 3.5 0.00 0.01 0.01 81 1015.3
20210915124205 71 340 0.9 3.5 0.00 0.01 0.01 79 1015.5
20210915123701 71 5 0.9 3.5 0.00 0.01 0.01 78 1015.6
20210915123203 71 0 0.9 5.2 0.00 0.01 0.01 78 1015.5
20210915122701 71 309 0.9 5.2 0.00 0.01 0.01 78 1015.6
20210915122202 71 279 0.9 6.1 0.00 0.01 0.01 78 1015.6
20210915121701 71 275 1.7 6.1 0.00 0.01 0.01 79 1015.6
20210915121202 71 261 0.9 4.3 0.00 0.01 0.01 79 1015.6
20210915120701 72 285 1.7 5.2 0.00 0.01 0.01 78 1015.6
20210915120202 72 286 0.9 5.2 0.00 0.01 0.01 77 1015.5
20210915115700 72 321 0.9 3.5 0.00 0.01 0.01 77 1015.5
20210915115202 72 302 0.9 3.5 0.00 0.01 0.01 77 1015.4
20210915114701 72 307 0.9 4.3 0.00 0.01 0.01 80 1015.5
20210915114201 71 275 0.9 4.3 0.00 0.01 0.01 81 1015.6
20210915113701 71 317 0.9 4.3 0.00 0.01 0.01 80 1015.7
20210915113202 71 283 1.7 4.3 0.00 0.01 0.01 81 1015.7